EJU54KW LICJ-LFLL

Flight info

Callsign EJU54KW
Flight time 1h 35m
Altitude 38000
Route GIANO DCT RONAB DCT KONER DCT LAGEN DCT TOP/N0387F240 DCT RONOP DCT GIGUS/N0403F270 Z40 AMVAR
Aircraft A320/M-SDE3FGHIRWY/LB1

Departure

Time 2026-04-29 18:36
Airport Falcone–Borsellino Airport (LICJ)

Arrival

Time 2026-04-29 20:12
Airport Lyon Saint-Exupéry Airport (LFLL)
Time Latitude Longitude Altitude Speed Heading
2026-04-29 18:11 38.18260 13.10027 65 ft 0 kts 247°
2026-04-29 18:31 38.18259 13.10025 65 ft 2 kts 247°
2026-04-29 18:31 38.18254 13.10010 63 ft 3 kts 247°
2026-04-29 18:31 38.18234 13.09985 63 ft 4 kts 193°
2026-04-29 18:31 38.18210 13.09987 65 ft 3 kts 169°
2026-04-29 18:32 38.18189 13.09998 59 ft 6 kts 146°
2026-04-29 18:32 38.18173 13.10161 63 ft 9 kts 131°
2026-04-29 18:32 38.18173 13.10238 64 ft 11 kts 69°
2026-04-29 18:33 38.18209 13.10350 63 ft 17 kts 67°
2026-04-29 18:33 38.18267 13.10518 59 ft 25 kts 66°
2026-04-29 18:33 38.18338 13.10736 60 ft 28 kts 68°
2026-04-29 18:33 38.18417 13.10968 63 ft 29 kts 67°
2026-04-29 18:34 38.18499 13.11212 63 ft 31 kts 66°
2026-04-29 18:34 38.18527 13.11296 59 ft 31 kts 66°
2026-04-29 18:34 38.18614 13.11701 66 ft 28 kts 92°
2026-04-29 18:34 38.18601 13.11798 68 ft 0 kts 102°
2026-04-29 18:35 38.18601 13.11800 68 ft 2 kts 102°
2026-04-29 18:35 38.18584 13.11860 62 ft 11 kts 122°
2026-04-29 18:35 38.18513 13.11898 72 ft 10 kts 234°
2026-04-29 18:35 38.18493 13.11812 72 ft 12 kts 246°
2026-04-29 18:36 38.18399 13.11530 67 ft 70 kts 247°
2026-04-29 18:36 38.18120 13.10699 66 ft 132 kts 247°
2026-04-29 18:36 38.17695 13.09436 181 ft 168 kts 248°
2026-04-29 18:36 38.17230 13.08069 816 ft 171 kts 245°
2026-04-29 18:37 38.16746 13.06648 1401 ft 181 kts 245°
2026-04-29 18:37 38.16403 13.05642 1646 ft 195 kts 245°
2026-04-29 18:37 38.15831 13.03975 1970 ft 219 kts 245°
2026-04-29 18:37 38.15455 13.02000 2437 ft 241 kts 265°
2026-04-29 18:38 38.15601 12.99823 3118 ft 256 kts 282°
2026-04-29 18:38 38.16304 12.97657 3697 ft 277 kts 301°
2026-04-29 18:38 38.17634 12.95877 4617 ft 280 kts 324°
2026-04-29 18:38 38.19338 12.94637 5520 ft 285 kts 328°
2026-04-29 18:39 38.20901 12.93122 6539 ft 280 kts 311°
2026-04-29 18:39 38.22079 12.91154 7376 ft 282 kts 299°
2026-04-29 18:39 38.23117 12.89027 8261 ft 284 kts 300°
2026-04-29 18:39 38.24180 12.86896 9190 ft 285 kts 300°
2026-04-29 18:40 38.25258 12.84768 10097 ft 287 kts 301°
2026-04-29 18:40 38.26377 12.82571 10499 ft 307 kts 301°
2026-04-29 18:40 38.27574 12.80217 10861 ft 325 kts 301°
2026-04-29 18:40 38.28848 12.77797 11548 ft 332 kts 307°
2026-04-29 18:41 38.35249 12.74271 13888 ft 347 kts 338°
2026-04-29 18:41 38.37494 12.73140 14574 ft 348 kts 334°
2026-04-29 18:42 38.39735 12.71940 15249 ft 351 kts 334°
2026-04-29 18:42 38.41980 12.70692 15911 ft 353 kts 333°
2026-04-29 18:42 38.44237 12.69407 16549 ft 358 kts 333°
2026-04-29 18:42 38.46519 12.68090 17160 ft 362 kts 333°
2026-04-29 18:43 38.48822 12.66755 17792 ft 365 kts 333°
2026-04-29 18:43 38.51148 12.65409 18417 ft 369 kts 333°
2026-04-29 18:43 38.53495 12.64054 18965 ft 372 kts 333°
2026-04-29 18:43 38.55858 12.62694 19510 ft 375 kts 333°
2026-04-29 18:44 38.58253 12.61318 20075 ft 378 kts 333°
2026-04-29 18:44 38.60659 12.59938 20623 ft 381 kts 333°
2026-04-29 18:44 38.63090 12.58540 21173 ft 385 kts 333°
2026-04-29 18:44 38.65541 12.57128 21727 ft 388 kts 333°
2026-04-29 18:45 38.67979 12.55720 22273 ft 391 kts 333°
2026-04-29 18:45 38.70476 12.54274 22768 ft 396 kts 333°
2026-04-29 18:45 38.72995 12.52810 23284 ft 399 kts 333°
2026-04-29 18:45 38.75538 12.51337 23753 ft 403 kts 333°
2026-04-29 18:46 38.78102 12.49856 24176 ft 405 kts 333°
2026-04-29 18:46 38.80683 12.48365 24605 ft 408 kts 333°
2026-04-29 18:46 38.83271 12.46865 25028 ft 410 kts 333°
2026-04-29 18:46 38.85876 12.45351 25436 ft 412 kts 333°
2026-04-29 18:47 38.88500 12.43838 25836 ft 414 kts 333°
2026-04-29 18:47 38.91153 12.42360 26228 ft 417 kts 334°
2026-04-29 18:47 38.93831 12.40900 26612 ft 419 kts 334°
2026-04-29 18:47 38.96528 12.39440 27007 ft 422 kts 334°
2026-04-29 18:48 38.99240 12.37973 27368 ft 424 kts 334°
2026-04-29 18:48 39.01965 12.36492 27730 ft 426 kts 334°
2026-04-29 18:48 39.04708 12.34992 28099 ft 428 kts 334°
2026-04-29 18:48 39.07457 12.33482 28445 ft 431 kts 334°
2026-04-29 18:49 39.10222 12.31960 28784 ft 433 kts 334°
2026-04-29 18:49 39.12992 12.30433 29121 ft 435 kts 334°
2026-04-29 18:49 39.15780 12.28891 29459 ft 437 kts 334°
2026-04-29 18:49 39.18590 12.27333 29752 ft 440 kts 334°
2026-04-29 18:50 39.21409 12.25769 30055 ft 442 kts 334°
2026-04-29 18:50 39.24206 12.24220 30310 ft 444 kts 334°
2026-04-29 18:50 39.27052 12.22645 30569 ft 446 kts 334°
2026-04-29 18:50 39.29911 12.21060 30832 ft 447 kts 333°
2026-04-29 18:51 39.32770 12.19474 31092 ft 448 kts 333°
2026-04-29 18:51 39.35634 12.17879 31336 ft 449 kts 333°
2026-04-29 18:51 39.38499 12.16281 31635 ft 448 kts 333°
2026-04-29 18:51 39.41359 12.14687 31962 ft 448 kts 333°
2026-04-29 18:52 39.44225 12.13091 32268 ft 447 kts 333°
2026-04-29 18:52 39.47080 12.11505 32604 ft 446 kts 333°
2026-04-29 18:52 39.49927 12.09923 32947 ft 445 kts 333°
2026-04-29 18:52 39.52765 12.08344 33288 ft 443 kts 333°
2026-04-29 18:53 39.55599 12.06761 33633 ft 442 kts 333°
2026-04-29 18:53 39.58379 12.05203 33975 ft 440 kts 332°
2026-04-29 18:53 39.61187 12.03627 34279 ft 439 kts 332°
2026-04-29 18:53 39.63990 12.02051 34541 ft 439 kts 333°
2026-04-29 18:54 39.66794 12.00476 34794 ft 439 kts 332°
2026-04-29 18:54 39.69602 11.98901 35060 ft 438 kts 332°
2026-04-29 18:54 39.72398 11.97332 35341 ft 437 kts 332°
2026-04-29 18:54 39.75187 11.95763 35589 ft 436 kts 332°
2026-04-29 18:55 39.77969 11.94196 35834 ft 435 kts 332°
2026-04-29 18:55 39.80746 11.92633 36087 ft 434 kts 332°
2026-04-29 18:55 39.83512 11.91077 36329 ft 433 kts 332°
2026-04-29 18:55 39.86281 11.89513 36573 ft 432 kts 332°
2026-04-29 18:56 39.89030 11.87926 36777 ft 432 kts 331°
2026-04-29 18:56 39.91756 11.86288 36979 ft 431 kts 330°
2026-04-29 18:56 39.94463 11.84616 37189 ft 430 kts 329°
2026-04-29 18:56 39.97156 11.82934 37406 ft 429 kts 329°
2026-04-29 18:57 39.99850 11.81253 37620 ft 429 kts 329°
2026-04-29 18:57 40.02513 11.79603 37814 ft 428 kts 329°
2026-04-29 18:57 40.05209 11.77941 37999 ft 428 kts 329°
2026-04-29 18:57 40.07903 11.76286 38045 ft 428 kts 329°
2026-04-29 18:58 40.13284 11.72986 38041 ft 427 kts 329°
2026-04-29 18:58 40.18659 11.69682 38041 ft 427 kts 329°
2026-04-29 18:59 40.24033 11.66369 38040 ft 427 kts 329°
2026-04-29 18:59 40.29420 11.63037 38040 ft 428 kts 329°
2026-04-29 19:00 40.34811 11.59699 38059 ft 428 kts 330°
2026-04-29 19:00 40.40193 11.56355 38051 ft 429 kts 330°
2026-04-29 19:01 40.45591 11.52996 38047 ft 429 kts 330°
2026-04-29 19:01 40.50950 11.49659 38044 ft 429 kts 330°
2026-04-29 19:02 40.55439 11.46863 38045 ft 429 kts 330°
2026-04-29 19:02 40.61750 11.42935 38049 ft 429 kts 330°
2026-04-29 19:03 40.67140 11.39554 38047 ft 429 kts 330°
2026-04-29 19:03 40.72535 11.36169 38044 ft 429 kts 330°
2026-04-29 19:04 40.77931 11.32785 38042 ft 429 kts 330°
2026-04-29 19:04 40.83332 11.29393 38051 ft 429 kts 331°
2026-04-29 19:05 40.88718 11.25993 38042 ft 430 kts 331°
2026-04-29 19:05 40.94119 11.22577 38038 ft 430 kts 330°
2026-04-29 19:06 40.99513 11.19159 38040 ft 430 kts 331°
2026-04-29 19:07 41.07603 11.14020 38051 ft 430 kts 331°
2026-04-29 19:07 41.12954 11.10615 38050 ft 430 kts 331°
2026-04-29 19:08 41.18345 11.07189 38048 ft 429 kts 331°
2026-04-29 19:08 41.23738 11.03750 38047 ft 429 kts 331°
2026-04-29 19:09 41.29116 11.00312 38061 ft 429 kts 332°
2026-04-29 19:09 41.34491 10.96874 38058 ft 428 kts 332°
2026-04-29 19:10 41.39856 10.93432 38056 ft 428 kts 331°
2026-04-29 19:10 41.45213 10.89982 38053 ft 427 kts 331°
2026-04-29 19:11 41.50567 10.86528 38053 ft 427 kts 331°
2026-04-29 19:11 41.55891 10.83096 38053 ft 427 kts 331°
2026-04-29 19:12 41.61242 10.79639 38050 ft 427 kts 331°
2026-04-29 19:12 41.66584 10.76179 38047 ft 427 kts 331°
2026-04-29 19:13 41.71931 10.72711 38062 ft 427 kts 331°
2026-04-29 19:13 41.77280 10.69237 38057 ft 427 kts 331°
2026-04-29 19:14 41.82612 10.65766 38060 ft 426 kts 331°
2026-04-29 19:14 41.87944 10.62283 38054 ft 426 kts 331°
2026-04-29 19:15 41.93275 10.58796 38055 ft 426 kts 331°
2026-04-29 19:15 41.98601 10.55310 38050 ft 426 kts 331°
2026-04-29 19:16 42.03933 10.51818 38044 ft 426 kts 331°
2026-04-29 19:16 42.09264 10.48309 38042 ft 427 kts 331°
2026-04-29 19:17 42.14603 10.44789 38054 ft 427 kts 331°
2026-04-29 19:17 42.19898 10.41295 38045 ft 427 kts 331°
2026-04-29 19:18 42.25234 10.37769 38046 ft 427 kts 331°
2026-04-29 19:18 42.30578 10.34231 38040 ft 427 kts 331°
2026-04-29 19:19 42.35911 10.30699 38042 ft 427 kts 331°
2026-04-29 19:19 42.41246 10.27156 38040 ft 427 kts 331°
2026-04-29 19:20 42.46581 10.23604 38043 ft 427 kts 331°
2026-04-29 19:20 42.51910 10.20038 38045 ft 427 kts 331°
2026-04-29 19:21 42.57243 10.16469 38052 ft 428 kts 331°
2026-04-29 19:21 42.62590 10.12890 38035 ft 428 kts 331°
2026-04-29 19:22 42.67935 10.09306 38039 ft 429 kts 331°
2026-04-29 19:22 42.73280 10.05704 38031 ft 429 kts 331°
2026-04-29 19:23 42.78591 10.02123 38038 ft 429 kts 331°
2026-04-29 19:23 42.83976 9.98499 38045 ft 429 kts 331°
2026-04-29 19:24 42.89280 9.94911 38048 ft 428 kts 331°
2026-04-29 19:24 42.94613 9.91300 38044 ft 428 kts 331°
2026-04-29 19:25 42.99945 9.87680 38048 ft 428 kts 331°
2026-04-29 19:25 43.05267 9.84054 38065 ft 427 kts 331°
2026-04-29 19:26 43.10576 9.80434 38062 ft 426 kts 331°
2026-04-29 19:26 43.14984 9.77423 38051 ft 426 kts 331°
2026-04-29 19:27 43.20279 9.73807 38048 ft 425 kts 331°
2026-04-29 19:27 43.25568 9.70180 38054 ft 424 kts 331°
2026-04-29 19:28 43.30844 9.66553 38062 ft 424 kts 331°
2026-04-29 19:28 43.36111 9.62924 38058 ft 423 kts 331°
2026-04-29 19:29 43.41372 9.59295 38051 ft 423 kts 331°
2026-04-29 19:29 43.46627 9.55664 38063 ft 422 kts 330°
2026-04-29 19:30 43.51679 9.51630 38063 ft 417 kts 319°
2026-04-29 19:30 43.56148 9.46536 38059 ft 416 kts 316°
2026-04-29 19:31 43.60340 9.41042 38050 ft 415 kts 314°
2026-04-29 19:31 43.64423 9.35395 38047 ft 415 kts 313°
2026-04-29 19:32 43.68497 9.29729 38058 ft 415 kts 313°
2026-04-29 19:32 43.72583 9.24097 38058 ft 415 kts 313°
2026-04-29 19:33 43.76654 9.18508 38058 ft 415 kts 313°
2026-04-29 19:33 43.80746 9.12871 38057 ft 415 kts 313°
2026-04-29 19:34 43.84831 9.07222 38047 ft 415 kts 313°
2026-04-29 19:34 43.88919 9.01562 38064 ft 415 kts 313°
2026-04-29 19:35 43.92990 8.95914 38065 ft 414 kts 313°
2026-04-29 19:35 43.97060 8.90257 38065 ft 414 kts 313°
2026-04-29 19:36 44.01116 8.84603 38066 ft 413 kts 313°
2026-04-29 19:36 44.05172 8.78938 38068 ft 413 kts 313°
2026-04-29 19:37 44.09227 8.73264 38074 ft 413 kts 313°
2026-04-29 19:37 44.13244 8.67630 38073 ft 413 kts 313°
2026-04-29 19:38 44.17282 8.61965 38071 ft 412 kts 313°
2026-04-29 19:38 44.21314 8.56282 38072 ft 412 kts 313°
2026-04-29 19:39 44.25340 8.50588 38080 ft 412 kts 313°
2026-04-29 19:39 44.29365 8.44895 38081 ft 412 kts 313°
2026-04-29 19:40 44.33395 8.39199 38093 ft 412 kts 313°
2026-04-29 19:40 44.37410 8.33507 38089 ft 411 kts 313°
2026-04-29 19:41 44.41414 8.27817 38090 ft 410 kts 313°
2026-04-29 19:41 44.45410 8.22109 38089 ft 411 kts 313°
2026-04-29 19:42 44.49408 8.16393 38090 ft 411 kts 313°
2026-04-29 19:42 44.53409 8.10672 38092 ft 411 kts 313°
2026-04-29 19:43 44.57405 8.04947 38092 ft 411 kts 313°
2026-04-29 19:43 44.61394 7.99213 38094 ft 410 kts 312°
2026-04-29 19:44 44.65381 7.93478 38084 ft 410 kts 312°
2026-04-29 19:44 44.69363 7.87735 38084 ft 410 kts 312°
2026-04-29 19:45 44.73330 7.81991 38099 ft 410 kts 312°
2026-04-29 19:45 44.77268 7.76274 38101 ft 409 kts 312°
2026-04-29 19:46 44.81235 7.70509 38103 ft 408 kts 312°
2026-04-29 19:46 44.85176 7.64771 38104 ft 408 kts 312°
2026-04-29 19:47 44.89124 7.59003 37763 ft 409 kts 312°
2026-04-29 19:47 44.91100 7.56113 37488 ft 409 kts 312°
2026-04-29 19:47 44.93074 7.53227 37216 ft 409 kts 312°
2026-04-29 19:47 44.95051 7.50337 36958 ft 410 kts 312°
2026-04-29 19:48 44.97030 7.47446 36690 ft 409 kts 312°
2026-04-29 19:48 44.98342 7.45524 36518 ft 409 kts 312°
2026-04-29 19:48 45.00981 7.41652 36244 ft 409 kts 312°
2026-04-29 19:48 45.02956 7.38750 36000 ft 410 kts 312°
2026-04-29 19:49 45.04933 7.35843 35749 ft 410 kts 312°
2026-04-29 19:49 45.06908 7.32929 35493 ft 410 kts 312°
2026-04-29 19:49 45.08882 7.30007 35247 ft 411 kts 312°
2026-04-29 19:49 45.10861 7.27073 34518 ft 413 kts 312°
2026-04-29 19:50 45.12850 7.24130 33795 ft 412 kts 313°
2026-04-29 19:50 45.14817 7.21223 33319 ft 405 kts 313°
2026-04-29 19:50 45.16744 7.18358 32789 ft 400 kts 310°
2026-04-29 19:50 45.18424 7.15236 32185 ft 395 kts 301°
2026-04-29 19:51 45.19691 7.11814 31649 ft 390 kts 293°
2026-04-29 19:51 45.20713 7.08265 31102 ft 387 kts 292°
2026-04-29 19:51 45.21698 7.04727 30439 ft 387 kts 288°
2026-04-29 19:51 45.22246 7.00944 29294 ft 397 kts 280°
2026-04-29 19:52 45.22671 6.97042 28439 ft 400 kts 280°
2026-04-29 19:52 45.23074 6.93176 27959 ft 393 kts 279°
2026-04-29 19:52 45.23465 6.89369 27472 ft 387 kts 279°
2026-04-29 19:52 45.23843 6.85673 27014 ft 381 kts 279°
2026-04-29 19:53 45.24223 6.81972 26560 ft 376 kts 279°
2026-04-29 19:53 45.24600 6.78316 26101 ft 372 kts 279°
2026-04-29 19:53 45.24973 6.74706 25665 ft 368 kts 279°
2026-04-29 19:53 45.25343 6.71127 25235 ft 365 kts 279°
2026-04-29 19:54 45.26069 6.64081 24359 ft 358 kts 279°
2026-04-29 19:54 45.26428 6.60580 24121 ft 359 kts 279°
2026-04-29 19:54 45.26789 6.57061 23611 ft 364 kts 279°
2026-04-29 19:55 45.27157 6.53456 22888 ft 369 kts 279°
2026-04-29 19:55 45.27519 6.49889 22499 ft 363 kts 279°
2026-04-29 19:55 45.27876 6.46360 22027 ft 359 kts 279°
2026-04-29 19:55 45.28228 6.42865 21567 ft 356 kts 279°
2026-04-29 19:56 45.28576 6.39397 21106 ft 353 kts 278°
2026-04-29 19:56 45.28919 6.35951 20653 ft 351 kts 278°
2026-04-29 19:56 45.29259 6.32531 20183 ft 348 kts 278°
2026-04-29 19:56 45.29597 6.29138 19733 ft 346 kts 278°
2026-04-29 19:57 45.29932 6.25768 19283 ft 345 kts 278°
2026-04-29 19:57 45.30154 6.23535 18986 ft 344 kts 278°
2026-04-29 19:57 45.30599 6.19057 18402 ft 341 kts 278°
2026-04-29 19:57 45.30924 6.15764 17908 ft 340 kts 278°
2026-04-29 19:58 45.31249 6.12447 17476 ft 338 kts 278°
2026-04-29 19:58 45.31570 6.09148 17047 ft 336 kts 278°
2026-04-29 19:58 45.31888 6.05866 16627 ft 334 kts 278°
2026-04-29 19:58 45.32203 6.02605 16194 ft 333 kts 278°
2026-04-29 19:59 45.32517 5.99357 15781 ft 331 kts 278°
2026-04-29 19:59 45.32826 5.96118 15363 ft 330 kts 277°
2026-04-29 19:59 45.32903 5.92868 14955 ft 329 kts 265°
2026-04-29 19:59 45.32563 5.89661 14656 ft 328 kts 261°
2026-04-29 20:00 45.32177 5.86474 14339 ft 327 kts 261°
2026-04-29 20:00 45.31796 5.83297 14026 ft 325 kts 261°
2026-04-29 20:00 45.31417 5.80137 13695 ft 324 kts 261°
2026-04-29 20:00 45.31036 5.76994 13376 ft 322 kts 260°
2026-04-29 20:01 45.30662 5.73907 13070 ft 321 kts 260°
2026-04-29 20:01 45.30284 5.70786 12753 ft 319 kts 260°
2026-04-29 20:01 45.29912 5.67695 12447 ft 317 kts 261°
2026-04-29 20:01 45.29544 5.64608 12142 ft 316 kts 261°
2026-04-29 20:02 45.29174 5.61533 11803 ft 315 kts 260°
2026-04-29 20:02 45.28814 5.58467 11466 ft 314 kts 264°
2026-04-29 20:02 45.28972 5.55411 11126 ft 311 kts 286°
2026-04-29 20:02 45.29543 5.53517 10904 ft 310 kts 302°
2026-04-29 20:03 45.31560 5.50722 10444 ft 308 kts 331°
2026-04-29 20:03 45.33559 5.49658 10168 ft 303 kts 342°
2026-04-29 20:03 45.35382 5.48325 9965 ft 293 kts 320°
2026-04-29 20:03 45.36697 5.46156 9656 ft 290 kts 301°
2026-04-29 20:04 45.37527 5.43563 9261 ft 288 kts 290°
2026-04-29 20:04 45.38229 5.40900 8864 ft 287 kts 290°
2026-04-29 20:04 45.39039 5.38323 8457 ft 286 kts 299°
2026-04-29 20:04 45.40106 5.35940 8053 ft 285 kts 302°
2026-04-29 20:05 45.41205 5.33597 7664 ft 284 kts 303°
2026-04-29 20:05 45.42298 5.31273 7267 ft 282 kts 303°
2026-04-29 20:05 45.43374 5.28989 6896 ft 281 kts 303°
2026-04-29 20:05 45.44460 5.26685 6499 ft 279 kts 303°
2026-04-29 20:06 45.45538 5.24394 6089 ft 278 kts 303°
2026-04-29 20:06 45.46605 5.22107 5691 ft 277 kts 303°
2026-04-29 20:06 45.47656 5.19819 5289 ft 275 kts 303°
2026-04-29 20:06 45.48698 5.17531 4892 ft 273 kts 303°
2026-04-29 20:07 45.49723 5.15268 4487 ft 271 kts 304°
2026-04-29 20:07 45.50971 5.13295 4098 ft 266 kts 323°
2026-04-29 20:07 45.52528 5.12052 4014 ft 246 kts 342°
2026-04-29 20:07 45.54105 5.11536 4005 ft 226 kts 356°
2026-04-29 20:08 45.55657 5.11346 3805 ft 221 kts 357°
2026-04-29 20:08 45.56663 5.11226 3617 ft 216 kts 357°
2026-04-29 20:08 45.58578 5.10997 3281 ft 194 kts 357°
2026-04-29 20:08 45.59852 5.10848 3062 ft 171 kts 358°
2026-04-29 20:09 45.60954 5.10704 2877 ft 155 kts 356°
2026-04-29 20:09 45.61999 5.10564 2590 ft 147 kts 358°
2026-04-29 20:09 45.63000 5.10448 2340 ft 142 kts 358°
2026-04-29 20:09 45.63996 5.10322 2190 ft 142 kts 358°
2026-04-29 20:10 45.64963 5.10213 2038 ft 141 kts 359°
2026-04-29 20:10 45.65942 5.10101 1912 ft 141 kts 358°
2026-04-29 20:10 45.66924 5.09986 1711 ft 141 kts 356°
2026-04-29 20:10 45.67902 5.09861 1528 ft 140 kts 356°
2026-04-29 20:11 45.68874 5.09740 1335 ft 140 kts 357°
2026-04-29 20:11 45.69835 5.09637 1119 ft 138 kts 355°
2026-04-29 20:11 45.70792 5.09517 931 ft 137 kts 356°
2026-04-29 20:11 45.71721 5.09408 825 ft 124 kts 355°
2026-04-29 20:12 45.72335 5.09332 814 ft 46 kts 355°
2026-04-29 20:12 45.72564 5.09304 811 ft 32 kts 355°
2026-04-29 20:12 45.72785 5.09239 803 ft 32 kts 336°
2026-04-29 20:12 45.72931 5.09107 798 ft 11 kts 326°
2026-04-29 20:13 45.72970 5.09004 793 ft 14 kts 266°
2026-04-29 20:13 45.72964 5.08910 792 ft 15 kts 266°
2026-04-29 20:13 45.72955 5.08710 792 ft 15 kts 266°
2026-04-29 20:13 45.72946 5.08563 791 ft 15 kts 265°
2026-04-29 20:14 45.72935 5.08425 790 ft 11 kts 256°
2026-04-29 20:14 45.72888 5.08365 790 ft 8 kts 204°
2026-04-29 20:14 45.72842 5.08355 790 ft 6 kts 180°
2026-04-29 20:14 45.72808 5.08358 791 ft 4 kts 176°
2026-04-29 20:15 45.72803 5.08359 791 ft 0 kts 176°
2026-04-29 20:16 45.72771 5.08362 791 ft 6 kts 175°
2026-04-29 20:16 45.72721 5.08368 791 ft 11 kts 175°
2026-04-29 20:17 45.72645 5.08377 792 ft 10 kts 176°
2026-04-29 20:17 45.72605 5.08382 794 ft 7 kts 174°
2026-04-29 20:17 45.72568 5.08387 796 ft 5 kts 175°
2026-04-29 20:17 45.72496 5.08394 796 ft 16 kts 178°
2026-04-29 20:18 45.72374 5.08409 798 ft 17 kts 175°
2026-04-29 20:18 45.72257 5.08424 800 ft 17 kts 174°
2026-04-29 20:18 45.72148 5.08439 802 ft 15 kts 174°
2026-04-29 20:18 45.72053 5.08450 802 ft 14 kts 176°
2026-04-29 20:19 45.71942 5.08462 802 ft 17 kts 175°
2026-04-29 20:19 45.71826 5.08477 802 ft 17 kts 174°
2026-04-29 20:19 45.71711 5.08491 802 ft 17 kts 175°
2026-04-29 20:19 45.71594 5.08504 803 ft 17 kts 175°
2026-04-29 20:20 45.71479 5.08520 805 ft 15 kts 175°
2026-04-29 20:20 45.71421 5.08484 807 ft 8 kts 243°
2026-04-29 20:20 45.71411 5.08390 804 ft 11 kts 264°
2026-04-29 20:20 45.71425 5.08333 804 ft 6 kts 337°
2026-04-29 20:21 45.71467 5.08341 802 ft 5 kts 15°
2026-04-29 20:21 45.71488 5.08347 802 ft 0 kts 14°